Location: downtown San Diego
(32.7310°N, 117.1990°W)
Time: 09:28:17
(UTC-07:00)

Cosmos 1680 Rocket - Pass Details

Date: 14 June 2018
Orbit: 760 x 781 km, 74.1° (Epoch: 20 June)

Event Time Altitude Azimuth Distance (km) Brightness Sun altitude
Rises 20:44:54 0° 205° (SSW) 3,203 6.6 -9.2°
Reaches altitude 10° 20:47:17 10° 209° (SSW) 2,283 5.9 -9.6°
Maximum altitude 20:52:23 59° 288° (WNW) 874 4.2 -10.5°
Drops below altitude 10° 20:57:33 10° 8° (N) 2,304 6.4 -11.3°
Sets 20:59:58 0° 13° (NNE) 3,237 7.1 -11.7°
